Humidity-temperature Sensor

Selected Measurement Type: Relative Humidity

 
Relative Humidity [%]     6 entries per hour
Showing data from 4/12/2021 (00:00:00 Z) to 4/11/2021 (00:01:00 Z)
Previous Next [ Day | 3-Days | 7-Days ]
First Last
Prev [ Day | 3-Days | 7-Days ] Next
First Last

Start Time:     :
End Time:     :     
Time (in GMT) :00 :50 :40 :30 :20 :10
Previous Next [ Day | 3-Days | 7-Days ]
First Last
Prev [ Day | 3-Days | 7-Days ] Next
First Last


123 => good data
MM => data is determined as missing
-- => data not received/configured
Back to Top Back to Top
4/12/2021 00:00 to 23:10 73.99 72.80 72.37 73.62 75.06 78.39
4/11/2021 23:00 to 22:10 80.05 80.57 80.85 80.55 79.91 79.72
4/11/2021 22:00 to 21:10 79.81 79.21 79.17 78.82 77.92 77.81
4/11/2021 21:00 to 20:10 77.77 77.36 77.05 77.13 78.20 81.92
4/11/2021 20:00 to 19:10 84.02 86.13 87.72 89.01 89.77 90.41
4/11/2021 19:00 to 18:10 91.19 91.19 91.25 91.56 92.11 93.22
4/11/2021 18:00 to 17:10 94.19 94.81 94.97 95.71 96.33 97.07
4/11/2021 17:00 to 16:10 97.03 96.84 96.70 96.64 96.45 95.90
4/11/2021 16:00 to 15:10 94.66 93.22 91.56 91.77 92.18 92.55
4/11/2021 15:00 to 14:10 92.67 91.70 90.22 89.38 89.46 89.50
4/11/2021 14:00 to 13:10 89.55 89.65 89.65 89.53 89.42 89.42
4/11/2021 13:00 to 12:10 89.73 90.12 90.53 90.45 90.39 90.24
4/11/2021 12:00 to 11:10 90.18 90.20 90.24 90.24 90.29 90.35
4/11/2021 11:00 to 10:10 90.39 90.33 90.45 90.43 90.47 90.61
4/11/2021 10:00 to 9:10 90.66 90.78 90.68 90.66 90.57 90.39
4/11/2021 09:00 to 8:10 90.22 89.85 89.77 89.38 89.18 89.30
4/11/2021 08:00 to 7:10 89.30 89.11 89.03 88.81 88.77 88.60
4/11/2021 07:00 to 6:10 88.60 88.46 88.29 88.11 87.98 87.78
4/11/2021 06:00 to 5:10 87.63 87.59 87.66 87.57 87.49 87.26
4/11/2021 05:00 to 4:10 87.29 87.12 86.92 86.77 86.81 86.79
4/11/2021 04:00 to 3:10 86.75 86.77 86.92 87.12 87.14 86.96
4/11/2021 03:00 to 2:10 86.77 86.77 86.63 86.34 86.20 86.34
4/11/2021 02:00 to 1:10 86.63 86.83 86.55 86.05 85.17 84.35
4/11/2021 01:00 to 0:10 83.94 83.46 83.42 83.07 82.39 81.86